Wind_Speed
12 12 11 10 10 10 10 10 9 9 8 8 6 6 6 6 5 4 3 3 3 3 2 1 1 0 1 2 2 3 3 3 3 3 2 3 3 3 3 3 3 3 4
12 11 11 10 10 9 10 10 9 9 8 7 7 6 6 6 5 4 3 3 3 3 3 2 2 1 1 1 1 2 2 2 2 2 2 3 3 2 3 3 3 3 4
11 11 11 10 10 9 10 9 9 9 9 8 7 6 6 5 5 4 3 3 3 3 2 3 3 2 2 1 1 1 1 2 2 2 2 2 2 3 3 3 3 3 3
10 10 10 10 9 9 9 9 9 9 8 8 7 6 5 5 5 4 3 3 3 3 3 2 2 3 2 1 1 1 2 1 2 2 1 2 2 2 3 3 3 4 4
10 9 10 10 10 9 9 9 8 8 8 7 7 6 5 5 4 4 3 3 3 3 3 3 2 2 1 1 1 1 2 2 1 1 1 1 2 3 3 3 4 4 5
9 9 9 9 10 9 9 8 8 8 7 7 7 6 5 5 4 3 3 3 2 2 2 2 2 1 1 0 0 0 1 1 2 1 1 1 1 2 3 4 4 4 5
10 9 9 9 9 9 9 8 8 7 7 7 6 5 5 4 3 3 3 3 2 2 2 2 1 1 1 1 1 1 1 1 2 1 1 1 1 1 2 3 4 4 4
9 9 9 9 9 9 8 8 7 6 6 6 5 5 5 4 4 3 3 2 2 2 2 2 1 1 1 1 1 1 1 2 2 2 2 2 2 1 2 2 4 4 3
9 9 9 9 9 8 8 7 7 6 5 5 4 4 4 4 4 4 3 3 2 2 2 2 2 1 2 2 2 2 2 2 3 3 3 2 2 2 2 2 3 3 4
9 9 9 9 9 8 8 7 7 7 6 5 4 4 4 3 4 3 3 3 2 1 1 2 2 3 2 2 2 2 2 2 3 3 2 2 2 3 3 3 3 4 5
9 10 10 9 9 9 8 8 7 7 6 5 5 3 3 3 4 3 3 2 2 2 2 2 2 3 3 3 3 3 3 2 3 3 3 3 3 2 3 3 4 5 5
10 10 10 10 9 9 9 8 8 7 6 6 5 4 4 4 3 3 2 2 2 2 2 3 3 3 3 3 3 4 4 4 4 4 4 4 3 3 3 4 5 5 5
10 10 10 10 9 9 8 8 8 8 7 6 6 5 5 4 3 3 3 2 2 2 1 2 3 3 3 3 4 4 4 4 4 4 4 5 4 4 5 5 6 6 6
9 10 10 10 10 10 9 8 8 8 8 7 6 6 5 4 4 4 3 3 3 3 2 2 3 3 4 5 5 4 5 5 5 5 5 5 5 6 6 7 6 6 6
9 9 10 10 10 10 10 10 9 8 8 7 7 7 6 5 5 5 4 4 3 3 3 3 3 4 4 5 5 6 6 5 5 6 6 6 6 6 6 6 6 6 6
10 10 10 11 11 11 11 10 10 8 7 8 7 7 7 7 6 6 5 5 4 4 4 4 4 4 4 4 5 6 6 5 5 5 5 6 6 5 6 6 6 6 6
10 10 10 11 11 12 12 11 10 9 8 8 8 8 8 8 7 7 7 6 6 5 5 5 5 5 5 5 5 5 5 6 6 6 6 6 6 6 6 6 6 7 7
10 10 11 12 12 12 12 11 10 9 8 8 9 9 9 9 8 8 8 8 7 7 6 6 6 6 6 6 6 6 6 5 5 6 6 6 7 6 7 7 7 8 8
10 11 11 11 11 12 12 12 11 11 10 9 9 8 9 9 9 9 8 8 8 8 8 7 7 8 8 7 7 7 7 6 6 7 7 7 6 6 7 7 8 8 8
11 11 12 11 12 12 12 12 11 11 10 10 10 9 9 9 9 9 9 9 9 9 9 9 9 9 9 8 8 8 8 8 8 8 8 8 7 8 8 9 9 9 9
13 13 13 12 13 14 13 12 11 10 10 10 10 10 9 9 9 9 10 10 10 10 10 10 10 10 10 10 9 9 9 9 9 9 9 9 9 9 9 9 10 9 9
14 14 13 14 14 14 14 13 12 10 10 10 10 9 8 9 9 9 10 10 11 11 11 10 11 11 11 10 10 11 10 10 9 10 10 10 10 10 10 10 10 10 10
14 14 14 15 15 14 14 12 12 11 10 9 9 8 8 8 9 11 11 12 12 12 11 10 10 11 11 10 10 10 10 10 10 11 11 11 11 11 11 11 11 11 11
15 14 15 15 15 15 14 13 11 10 9 9 9 8 8 8 9 10 10 10 10 10 10 10 11 11 11 11 11 10 10 11 11 11 11 12 12 12 13 13 12 12 12
15 15 15 15 15 14 13 13 12 11 10 9 9 9 9 9 9 9 10 10 9 10 10 11 12 12 12 11 11 11 12 12 12 12 12 12 12 13 13 13 13 13 12
16 16 16 15 15 14 13 13 12 11 10 10 10 10 9 9 10 9 9 9 10 11 12 12 13 13 13 12 12 12 12 13 13 12 12 13 13 14 14 14 14 14 13
Wind_Direction
14 12 13 16 20 27 29 30 33 38 35 37 38 35 35 34 31 33 31 40 54 60 48 41 38 33 193 171 173 174 167 163 167 150 150 162 160 167 170 174 170 165 163
11 12 14 15 19 25 27 29 33 36 36 37 40 39 43 43 36 37 43 47 52 52 54 49 59 80 95 112 136 170 174 180 173 169 186 183 178 175 174 174 175 172 173
9 13 16 17 20 23 25 28 35 38 38 40 43 46 45 44 39 41 49 47 44 41 49 51 71 78 81 101 123 142 161 187 193 181 182 187 182 177 181 183 179 183 184
8 12 15 17 17 20 25 28 35 37 38 39 41 42 41 38 36 37 36 33 30 27 35 40 58 75 80 88 122 145 165 170 166 155 151 170 192 198 192 189 185 182 185
6 10 14 17 19 23 24 25 32 33 34 34 32 35 34 28 24 24 17 16 18 15 19 21 23 43 67 67 81 122 162 160 163 165 162 210 233 218 200 198 189 185 190
5 9 15 19 21 21 23 27 28 28 28 27 26 30 28 26 19 14 12 10 0 4 10 13 1 356 11 32 11 195 172 182 193 199 217 238 239 228 209 207 199 198 204
3 7 11 15 16 16 18 21 22 24 24 23 22 27 26 24 24 15 17 13 357 356 355 347 339 315 279 272 263 271 245 212 219 235 241 242 242 223 203 198 205 208 216
359 4 7 10 11 11 10 14 17 18 16 17 21 24 19 18 18 8 3 360 351 347 333 305 303 296 274 271 254 247 246 234 230 237 228 227 223 235 207 198 207 206 216
360 3 6 5 5 6 7 7 8 7 6 6 10 11 4 3 1 0 355 345 345 352 333 301 277 282 277 276 258 243 249 244 233 228 222 209 218 236 235 238 212 214 224
359 0 3 4 3 1 2 3 1 357 354 355 354 347 344 345 345 350 348 336 334 326 305 299 274 274 286 276 269 257 248 234 221 219 219 234 252 242 238 237 235 244 237
353 354 355 359 358 356 355 355 352 348 343 341 340 331 325 330 331 333 332 336 335 315 292 297 270 270 265 262 266 263 239 215 217 226 234 241 254 257 251 251 257 258 241
349 350 349 351 351 348 346 345 343 339 335 331 327 323 318 314 319 315 314 323 334 325 310 295 293 272 266 261 254 249 238 230 233 234 239 246 255 258 256 262 263 255 247
342 343 341 343 344 342 341 338 336 330 326 327 323 312 305 303 298 287 292 304 306 308 295 276 275 269 276 269 250 248 250 243 239 241 250 253 257 262 259 264 269 261 253
336 338 337 338 334 332 333 332 328 321 316 317 316 312 306 298 291 276 278 284 286 284 283 284 268 259 257 265 264 258 251 249 249 254 260 259 258 258 259 264 262 261 257
329 332 332 331 329 327 326 326 322 316 311 312 309 307 299 290 284 279 273 270 274 281 281 284 288 280 269 265 261 257 250 248 254 257 261 265 265 263 265 268 267 263 261
318 323 329 330 329 327 323 322 325 317 308 303 302 303 296 286 279 275 270 265 265 269 279 288 282 284 288 278 261 253 247 249 252 253 261 261 258 262 266 268 265 264 265
312 319 322 324 323 322 321 318 318 315 308 301 299 300 291 281 276 274 271 262 256 259 265 271 275 275 280 281 267 253 251 250 247 254 264 265 262 263 264 265 267 267 266
309 314 316 317 317 316 315 313 310 308 307 299 298 297 287 276 271 269 269 263 258 257 258 261 264 265 270 269 263 256 257 256 255 262 269 267 264 264 267 268 270 275 273
302 305 309 310 314 311 309 307 302 303 300 297 293 290 286 278 268 264 263 262 260 259 259 259 262 265 263 264 265 263 266 266 267 272 274 273 274 277 276 275 273 276 274
295 297 302 305 311 311 307 303 298 296 294 293 289 285 281 276 267 263 259 258 259 260 261 259 261 264 262 262 262 263 264 265 269 273 273 272 272 277 279 278 275 278 276
289 294 296 301 306 306 305 299 296 293 292 290 286 283 276 269 259 258 256 257 258 258 258 260 263 262 259 260 260 262 264 263 264 268 272 272 273 277 278 274 271 274 274
291 292 294 300 301 302 303 295 292 291 290 288 282 280 279 271 259 256 253 254 260 257 260 261 258 258 258 261 261 259 261 265 263 267 270 269 270 274 278 275 273 273 273
295 297 298 300 300 299 300 295 292 287 285 284 279 274 273 271 265 258 259 258 257 254 255 255 255 257 259 263 265 265 262 261 263 265 267 269 269 273 277 278 278 277 275
293 294 297 298 297 298 296 295 293 288 283 280 277 273 268 266 265 263 264 262 255 251 254 256 256 256 259 263 266 265 263 261 262 265 266 267 270 273 278 277 275 276 277
287 290 295 294 291 291 292 290 285 284 283 281 278 278 275 270 266 265 266 266 262 257 258 259 258 259 262 266 264 263 262 261 263 265 268 269 269 272 275 275 274 275 276
278 283 287 287 285 285 284 283 282 277 276 276 275 277 279 274 272 267 267 268 264 261 263 261 261 260 263 267 265 264 265 266 265 265 268 270 271 273 275 274 272 275 275
Height
5876 5875 5873 5872 5871 5870 5869 5869 5868 5868 5868 5868 5868 5868 5868 5868 5868 5868 5868 5869 5869 5869 5869 5869 5869 5869 5869 5870 5870 5871 5871 5872 5873 5874 5874 5875 5876 5877 5878 5878 5879 5880 5880
5876 5875 5874 5872 5871 5870 5870 5869 5869 5868 5868 5868 5868 5868 5868 5869 5869 5869 5869 5869 5869 5869 5869 5869 5869 5869 5869 5870 5871 5871 5872 5873 5873 5874 5875 5875 5876 5877 5878 5878 5879 5880 5880
5877 5876 5874 5873 5872 5871 5870 5870 5869 5869 5869 5868 5869 5869 5869 5869 5869 5869 5869 5869 5869 5869 5869 5869 5869 5869 5870 5871 5871 5871 5872 5873 5873 5874 5874 5875 5876 5876 5877 5878 5879 5880 5880
5877 5876 5875 5873 5872 5871 5871 5870 5870 5869 5869 5869 5869 5869 5869 5869 5869 5869 5869 5870 5870 5870 5870 5870 5870 5870 5870 5871 5871 5872 5872 5873 5873 5874 5874 5875 5876 5876 5877 5878 5878 5879 5880
5878 5876 5875 5874 5873 5872 5871 5870 5870 5870 5870 5870 5870 5870 5870 5870 5870 5870 5870 5870 5870 5870 5870 5870 5870 5870 5871 5871 5872 5872 5872 5873 5873 5874 5874 5875 5875 5876 5876 5877 5878 5879 5879
5878 5877 5876 5874 5873 5872 5872 5871 5870 5870 5870 5870 5870 5870 5870 5870 5870 5870 5870 5870 5870 5870 5870 5870 5870 5870 5871 5871 5872 5872 5872 5873 5873 5874 5874 5875 5875 5875 5876 5876 5877 5878 5879
5878 5877 5876 5875 5874 5873 5872 5871 5871 5870 5870 5870 5870 5870 5870 5870 5870 5870 5870 5869 5869 5869 5870 5870 5870 5870 5871 5871 5872 5872 5872 5872 5873 5873 5874 5874 5875 5875 5875 5876 5877 5878 5878
5878 5877 5876 5875 5874 5873 5872 5872 5871 5871 5870 5870 5870 5870 5870 5870 5869 5869 5869 5869 5869 5869 5869 5869 5869 5870 5870 5871 5871 5871 5872 5872 5873 5873 5874 5874 5874 5875 5875 5876 5876 5877 5877
5878 5877 5876 5875 5874 5873 5872 5872 5871 5871 5870 5870 5870 5870 5870 5869 5869 5869 5869 5869 5869 5869 5869 5869 5869 5869 5870 5870 5870 5871 5871 5872 5872 5873 5873 5874 5874 5875 5875 5875 5876 5876 5876
5878 5877 5876 5875 5874 5873 5872 5872 5871 5871 5870 5870 5869 5869 5869 5869 5869 5869 5868 5869 5869 5869 5869 5869 5868 5869 5869 5869 5870 5870 5870 5871 5871 5872 5873 5873 5874 5874 5874 5875 5875 5875 5875
5878 5877 5876 5875 5874 5873 5872 5871 5871 5870 5870 5869 5869 5868 5868 5868 5868 5868 5868 5868 5868 5868 5868 5868 5867 5868 5868 5869 5869 5870 5870 5870 5871 5871 5872 5873 5873 5873 5874 5874 5874 5874 5874
5878 5877 5876 5874 5873 5873 5872 5871 5870 5870 5869 5869 5868 5868 5868 5867 5867 5867 5867 5868 5868 5868 5868 5868 5867 5867 5868 5868 5869 5869 5869 5870 5870 5871 5871 5872 5872 5873 5873 5873 5873 5873 5873
5877 5876 5875 5874 5873 5872 5871 5870 5869 5869 5868 5868 5867 5867 5867 5866 5866 5866 5866 5867 5867 5867 5867 5867 5867 5867 5867 5868 5868 5868 5869 5869 5869 5870 5870 5871 5871 5872 5872 5872 5872 5872 5872
5876 5875 5874 5873 5872 5871 5870 5869 5869 5868 5867 5867 5866 5866 5866 5866 5866 5865 5866 5866 5866 5866 5866 5866 5866 5866 5866 5867 5867 5867 5868 5869 5869 5869 5870 5870 5870 5870 5870 5870 5870 5870 5871
5875 5873 5872 5871 5871 5870 5869 5868 5868 5867 5866 5866 5865 5865 5865 5865 5865 5865 5865 5865 5865 5865 5865 5865 5865 5865 5865 5865 5866 5866 5867 5867 5868 5868 5868 5869 5869 5869 5869 5869 5869 5869 5869
5874 5872 5871 5870 5869 5869 5867 5866 5866 5865 5865 5864 5864 5864 5863 5863 5863 5864 5864 5864 5864 5864 5864 5864 5864 5864 5864 5864 5864 5865 5865 5866 5867 5867 5867 5867 5867 5867 5867 5867 5867 5867 5867
5872 5871 5870 5869 5868 5867 5866 5865 5864 5863 5863 5862 5862 5862 5862 5862 5862 5862 5862 5862 5863 5863 5863 5863 5863 5863 5863 5863 5863 5864 5864 5865 5865 5865 5866 5866 5866 5866 5866 5866 5866 5866 5866
5870 5869 5868 5867 5866 5865 5864 5863 5862 5861 5861 5860 5860 5859 5859 5859 5860 5860 5860 5861 5861 5861 5861 5862 5862 5862 5862 5862 5862 5862 5863 5863 5864 5864 5864 5864 5864 5864 5864 5864 5864 5864 5864
5868 5867 5866 5865 5864 5862 5862 5861 5860 5859 5858 5857 5857 5857 5857 5857 5857 5858 5858 5859 5859 5859 5859 5860 5860 5860 5860 5860 5860 5861 5861 5862 5862 5862 5862 5862 5862 5862 5862 5863 5862 5862 5862
5865 5865 5864 5863 5862 5860 5859 5858 5857 5856 5856 5855 5855 5854 5854 5855 5855 5855 5856 5856 5857 5857 5857 5857 5858 5858 5858 5858 5859 5859 5860 5860 5860 5860 5861 5861 5861 5861 5861 5861 5860 5860 5860
5862 5862 5861 5860 5859 5858 5857 5856 5855 5854 5853 5853 5852 5851 5852 5852 5852 5853 5854 5854 5854 5855 5855 5855 5855 5856 5856 5856 5857 5857 5857 5858 5858 5858 5858 5858 5858 5859 5858 5858 5858 5858 5858
5859 5858 5858 5858 5857 5855 5854 5853 5852 5851 5851 5850 5849 5849 5849 5849 5850 5850 5851 5851 5851 5852 5852 5852 5853 5853 5854 5854 5854 5854 5855 5856 5855 5856 5856 5856 5856 5856 5856 5856 5856 5855 5855
5856 5855 5855 5853 5852 5851 5851 5850 5849 5849 5848 5848 5847 5847 5847 5847 5847 5848 5848 5848 5848 5849 5849 5850 5850 5850 5851 5851 5851 5852 5852 5852 5853 5853 5853 5853 5853 5853 5853 5853 5853 5853 5853
5852 5851 5850 5849 5849 5848 5847 5847 5846 5845 5846 5845 5845 5844 5844 5845 5845 5845 5845 5845 5845 5845 5846 5846 5847 5847 5848 5848 5848 5848 5849 5849 5849 5850 5850 5850 5850 5850 5850 5850 5850 5850 5850
5848 5847 5847 5846 5846 5845 5844 5844 5844 5843 5843 5843 5843 5842 5842 5842 5842 5843 5843 5842 5842 5842 5843 5843 5844 5844 5844 5844 5844 5845 5845 5846 5846 5846 5847 5847 5847 5847 5847 5847 5847 5847 5846
5844 5844 5843 5843 5843 5842 5841 5841 5841 5840 5840 5840 5840 5840 5840 5840 5840 5840 5840 5840 5840 5840 5840 5840 5840 5841 5841 5841 5842 5842 5842 5842 5843 5843 5843 5843 5843 5843 5843 5843 5843 5843 5843